Погода в Дареме

Великобритания     54°47′02″N   1°32′35″W
темп.,
°C
ветер,
м/с
пор.,
м/с
влажн.,
%
обл.,
%
осадки,
мм/ч
давл.,
гПа
погр.,
м
7 мая, пт
пт701:00+1зсз37945 0.0 1010142
04:00+1зсз38955 0.0 1011139
07:00+4зсз25885 0.0 1012145
10:00+8сз126011 0.0 10141221
13:00+9ююв236293 0.8 10141161
16:00+9юв236899 1.9 10131083
19:00+8з247828 3.3 1013352
22:00+3зюз2388100 0.2 101438
8 мая, сб
сб801:00+2ююз228773 0.2 101227
04:00+1ю2389100 0.0 101060
07:00+3ююв2885100 0.0 1007276
10:00+4юв61395100 2.4 1003848
13:00+6ююв51297100 7.9 997942
16:00+8ю61297100 0.1 995385
19:00+9ю31098100 0.1 994356
22:00+10ю3999100 0.5 993425
9 мая, вс
вс901:00+11ююз3797100 1.4 992272
04:00+12ююз61494100 1.2 992898
07:00+10ююв4994100 1.7 992332
10:00+9ююз2993100 1.1 992460
13:00+13ю5881100 1.2 9931018
16:00+15ююз61068100 0.3 9921430
19:00+13ю51073100 0.4 992735
22:00+10ю3689100 0.0 993136
10 мая, пн
пн1001:00+8ююз2493100 0.0 99393
04:00+7ююз3795100 0.0 994158
07:00+8ююз5109298 0.0 995380
10:00+12ю7107766 0.0 995988
13:00+13ююз8117185 0.3 9971420
16:00+14ююз7106130 0.4 9981844
19:00+12ююз597315 1.1 1000941
22:00+8ю312901 0.1 1003345
11 мая, вт
вт1101:00+7ю513930 0.1 1005410
04:00+5ю399535 0.0 1005221
07:00+7ююв2690100 0.0 1006217
10:00+11ю597740 0.2 1006908
13:00+15ю696049 1.1 10061843
16:00+15ю686138 0.2 10061504
19:00+13ю477254 0.3 1008732
22:00+9ююв2287100 0.0 100926